Regional Weather Roundup
Issued by NWS Upton, NY

Current Version | Previous Version | Graphics & Text | Print | Product List | Glossary Off
Versions: 1 2 3 4 5 6 7 8 9 10 11 12 13 14 15 16 17 18 19 20 21 22 23 24 25 26 27 28 29 30 31 32 33 34 35 36 37 38 39 40 41 42 43 44 45 46 47 48 49 50
000 ASUS41 KOKX 311404 RWROKX REGIONAL WEATHER ROUNDUP NATIONAL WEATHER SERVICE NEW YORK NY 1000 AM EDT FRI JUL 31 2015 NOTE: "FAIR" INDICATES FEW OR NO CLOUDS BELOW 12,000 FEET WITH NO SIGNIFICANT WEATHER AND/OR OBSTRUCTIONS TO VISIBILITY. NYZ071-072-176-178-NJZ106-104-311500- NEW YORK CITY METRO AREA CITY SKY/WX TMP DP RH WIND PRES REMARKS CENTRAL PARK SUNNY 80 58 46 W6 29.91S LAGUARDIA APRT SUNNY 81 60 48 NW8 29.87S KENNEDY INTL MOSUNNY 85 58 39 CALM 29.88S NEWARK/LIBERTY SUNNY 83 60 45 VRB5 29.88S BRNX BOT. GARD N/A 79 61 53 NW2 29.90S TETERBORO SUNNY 82 59 45 NW5 29.87S $$ NYZ177-179-078>081-311500- LONG ISLAND NEW YORK CITY SKY/WX TMP DP RH WIND PRES REMARKS FARMINGDALE SUNNY 81 62 52 NW7 29.87S ISLIP MOSUNNY 81 63 54 NW3 29.85S SHIRLEY SUNNY 82 65 56 NW7 29.87S WESTHAMPTON SUNNY 82 64 54 NW6 29.87S MONTAUK POINT N/A 79 71 76 W7 29.86S $$ NYZ052-065-067-311500- HUDSON VALLEY CITY SKY/WX TMP DP RH WIND PRES REMARKS WHITE PLAINS SUNNY 77 62 59 VRB5 29.88S NEWBURGH NOT AVBL MONTGOMERY SUNNY 79 62 56 NW8 29.88S POUGHKEEPSIE SUNNY 79 61 53 VRB5 29.86S ALBANY MOSUNNY 78 60 53 W13 29.84F $$ NJZ001-105-106-008-010-013-015-019>022-104-311500- NEW JERSEY CITY SKY/WX TMP DP RH WIND PRES REMARKS NEWARK/LIBERTY SUNNY 83 60 45 VRB5 29.88S TETERBORO SUNNY 82 59 45 NW5 29.87S CALDWELL SUNNY 81 60 48 NW7 29.89S MORRISTOWN SUNNY 82 64 54 NW6 29.89F SOMERVILLE SUNNY 81 62 52 CALM 29.88S SUSSEX SUNNY 78 62 57 VRB5 29.90S ANDOVER N/A 76 64 66 SW3 29.91F TRENTON SUNNY 80 62 54 NW7 29.90S MILLVILLE SUNNY 83 64 52 NW8 29.92S ATLANTIC CITY SUNNY 81 65 58 N6 29.91S WRIGHTSTOWN SUNNY 80 65 60 NW5 29.88S TOMS RIVER N/A 79 64 61 NW7 29.91R BELMAR SUNNY 79 64 61 W7 29.90R $$ PAZ047>061-062-071-311500- EASTERN PENNSYLVANIA CITY SKY/WX TMP DP RH WIND PRES REMARKS PHILADELPHIA SUNNY 82 59 45 NW12 29.91S ALLENTOWN SUNNY 78 63 59 CALM 29.92S SCRANTON SUNNY 75 60 59 SW6 29.94S $$ CTZ002-004>006-009-010-012-RIZ004-006-007-MAZ004-011-015-311500- SOUTHERN NEW ENGLAND IN CT CITY SKY/WX TMP DP RH WIND PRES REMARKS BRADLEY INTL MOSUNNY 80 64 58 W9 29.83F HARTFORD SUNNY 80 65 59 VRB3 29.83F DANBURY SUNNY 76 63 64 SW6 29.88F WTRBRY/OXFORD SUNNY 75 64 69 CALM 29.89F BRIDGEPORT SUNNY 78 66 66 SW9 29.86S MERIDEN SUNNY 80 65 59 W5 29.85S NEW HAVEN SUNNY 77 66 68 W5 29.85F CHESTER FAIR 79 64 61 NW3 29.87S GROTON SUNNY 76 70 82 SW8 29.84S WILLIMANTIC SUNNY 79 65 62 W7 29.84F IN RI CITY SKY/WX TMP DP RH WIND PRES REMARKS PROVIDENCE MOSUNNY 81 66 60 W9 29.83S BLOCK ISLAND N/A 79 72 78 W8 29.87R WESTERLY SUNNY 77 70 79 SW7 29.85S IN MA CITY SKY/WX TMP DP RH WIND PRES REMARKS BOSTON MOSUNNY 82 61 48 W7 29.80S WORCESTER SUNNY 74 63 68 W9 29.86S WESTFIELD SUNNY 80 61 52 W7 29.83F PROVINCETOWN SUNNY 79 64 61 W13 29.81S NANTUCKET SUNNY 84 64 50 NW13 29.82S $$ ANZ330-335-338-340-345-350-353-355-311500- COASTAL MARINE OBSERVATIONS STATION/POSITION TIME SKY/WX TEMP WIND PRES VSBY WAVE AIR SEA DIR/SP/G HT/PER (UTC) (F) (DEG/KT/KT) (MB) (MI) (FT/S) NY HARB ENTRANCE 1250 75 76 300/ 12/ 14 1011.2 2/10 4S FIRE IS NOT AVBL 20S FIRE ISLAND 1250 75 74 320/ 10/ 12 1011.0 3/ 5 GREAT SOUTH BAY 1300 76 80 330/ 8/ 10 N/A 23SW MTP 1350 72 73 260/ 6/ 8 1010.6 3/ 5 HUDSON CANYON NOT AVBL KINGS POINT 1300 79 70 CALM / 2 1011.0 EXECUTION ROCKS 1300 75 190/ 2/ 4 N/A CENTRAL LI SOUND NOT AVBL EASTERN LI SOUND 1300 72 70 280/ 6/ 8 N/A ROBBINS REEF 1300 76 250/ 5/ 6 1010.7 $$ >>>>>>>>>>>>>>>>>>>>>>>>>>>> KEY <<<<<<<<<<<<<<<<<<<<<<<<<<< > < > SKY/WX - SKY CONDITION/PRESENT WEATHER < > TMP - TEMPERATURE IN FAHRENHEIT < > DP - DEWPOINT IN FAHRENHEIT < > RH - RELATIVE HUMIDITY IN PERCENT < > WIND - DIRECTION AND SPEED IN MPH < > PRES - MEAN SEA LEVEL PRESSURE IN INCHES OF HG < > WCI - WIND CHILL INDEX < > VSB - VISIBILITY IN MILES < > HX - HEAT INDEX < > TC - TEMPERATURE IN CELSIUS < > VRB - VARIABLE WIND DIRECTION < > < >>>>>>>>>>>>>>>>>>>>>>>>>>>> KEY <<<<<<<<<<<<<<<<<<<<<<<<<<<

USA.gov is the U.S. government's official web portal to all federal, state and local government web resources and services.